CGPZO KLXV-KLXV

Flight info

Callsign CGPZO
Flight time N/A
Altitude 13500
Route KLXV KASE KGWS KEGE KLXV
Aircraft PA34/L-G/C

Departure

Time 2026-04-21 23:51
Airport Lake County Airport (KLXV)

Arrival

Time N/A
Airport Lake County Airport (KLXV)
Time Latitude Longitude Altitude Speed Heading
2026-04-21 22:58 39.22431 -106.31580 9973 ft 0 kts 351°
2026-04-21 23:00 39.22454 -106.31647 9966 ft 0 kts 351°
2026-04-21 23:00 39.22516 -106.31629 9968 ft 0 kts 350°
2026-04-21 23:00 39.22515 -106.31630 9968 ft 0 kts 350°
2026-04-21 23:00 39.22517 -106.31630 9968 ft 0 kts 260°
2026-04-21 23:42 39.22503 -106.31658 9965 ft 12 kts 225°
2026-04-21 23:42 39.22451 -106.31757 9956 ft 13 kts 176°
2026-04-21 23:43 39.22370 -106.31735 9958 ft 14 kts 170°
2026-04-21 23:43 39.22255 -106.31712 9960 ft 17 kts 171°
2026-04-21 23:43 39.22144 -106.31683 9963 ft 16 kts 171°
2026-04-21 23:43 39.21982 -106.31660 9961 ft 32 kts 171°
2026-04-21 23:44 39.21747 -106.31602 9961 ft 30 kts 170°
2026-04-21 23:44 39.21566 -106.31561 9956 ft 24 kts 170°
2026-04-21 23:44 39.21406 -106.31525 9950 ft 22 kts 171°
2026-04-21 23:44 39.21249 -106.31491 9942 ft 21 kts 169°
2026-04-21 23:45 39.21167 -106.31424 9938 ft 10 kts 78°
2026-04-21 23:45 39.21128 -106.31355 9935 ft 0 kts 179°
2026-04-21 23:46 39.21098 -106.31372 9931 ft 1 kts 245°
2026-04-21 23:47 39.21097 -106.31374 9931 ft 0 kts 252°
2026-04-21 23:47 39.21095 -106.31387 9930 ft 10 kts 259°
2026-04-21 23:47 39.21094 -106.31458 9928 ft 0 kts 340°
2026-04-21 23:48 39.21098 -106.31458 9929 ft 0 kts 348°
2026-04-21 23:50 39.21108 -106.31461 9930 ft 5 kts 348°
2026-04-21 23:50 39.21313 -106.31507 9946 ft 63 kts 349°
2026-04-21 23:50 39.21915 -106.31630 10016 ft 101 kts 346°
2026-04-21 23:51 39.22660 -106.31737 10228 ft 109 kts 346°
2026-04-21 23:51 39.23299 -106.32050 10585 ft 93 kts 306°
2026-04-21 23:51 39.23486 -106.32836 10810 ft 97 kts 259°
2026-04-21 23:51 39.23123 -106.33558 11065 ft 102 kts 216°
2026-04-21 23:52 39.22424 -106.33816 11297 ft 111 kts 183°
2026-04-21 23:52 39.21632 -106.33649 11509 ft 118 kts 175°
2026-04-21 23:52 39.20821 -106.33442 11783 ft 116 kts 175°
2026-04-21 23:52 39.20043 -106.33238 12042 ft 117 kts 172°
2026-04-21 23:53 39.19237 -106.32939 12241 ft 122 kts 169°
2026-04-21 23:53 39.18419 -106.32639 12468 ft 121 kts 171°
2026-04-21 23:53 39.17595 -106.32381 12637 ft 127 kts 173°
2026-04-21 23:53 39.16697 -106.32130 12727 ft 135 kts 170°
2026-04-21 23:54 39.15779 -106.31829 12922 ft 131 kts 172°
2026-04-21 23:54 39.14907 -106.31707 13178 ft 125 kts 180°
2026-04-21 23:54 39.14025 -106.31613 13330 ft 129 kts 176°
2026-04-21 23:54 39.13127 -106.31451 13451 ft 133 kts 173°
2026-04-21 23:55 39.12250 -106.31259 13725 ft 125 kts 171°
2026-04-21 23:55 39.11366 -106.30991 13808 ft 142 kts 168°
2026-04-21 23:55 39.10337 -106.30698 13767 ft 156 kts 168°
2026-04-21 23:55 39.09248 -106.30559 13743 ft 159 kts 193°
2026-04-21 23:56 39.08443 -106.31428 13810 ft 157 kts 248°
2026-04-21 23:56 39.08141 -106.32806 13762 ft 164 kts 253°
2026-04-21 23:56 39.07900 -106.34270 13699 ft 169 kts 259°
2026-04-21 23:56 39.07746 -106.35740 13816 ft 161 kts 263°
2026-04-21 23:57 39.07652 -106.37099 14091 ft 147 kts 265°
2026-04-21 23:57 39.07602 -106.38374 14291 ft 141 kts 269°
2026-04-21 23:57 39.07657 -106.39649 14358 ft 146 kts 280°
2026-04-21 23:57 39.07776 -106.40917 14544 ft 139 kts 271°
2026-04-21 23:58 39.07753 -106.42140 14687 ft 137 kts 267°
2026-04-21 23:58 39.07703 -106.43360 14816 ft 137 kts 268°
2026-04-21 23:58 39.07704 -106.44675 14694 ft 154 kts 272°
2026-04-21 23:58 39.07744 -106.46044 14710 ft 156 kts 272°
2026-04-21 23:59 39.07777 -106.47483 14661 ft 162 kts 272°
2026-04-21 23:59 39.07838 -106.48928 14616 ft 165 kts 274°
2026-04-21 23:59 39.07966 -106.50411 14574 ft 166 kts 279°
2026-04-21 23:59 39.08198 -106.51852 14540 ft 164 kts 287°
2026-04-22 00:00 39.08629 -106.53167 14608 ft 157 kts 301°
2026-04-22 00:00 39.09246 -106.54330 14580 ft 159 kts 307°
2026-04-22 00:00 39.09948 -106.55441 14577 ft 157 kts 311°
2026-04-22 00:00 39.10660 -106.56484 14531 ft 154 kts 314°